This demonstration page uses our WeatherBlox Daily Observations layout. Learn more.

Left ArrowRight Arrow

40.92945, -100.16068

Hourly Observations for September 20, 2021

Temp ( °F °C ) Dew Point ( °F °C ) Humidity (%) Winds ( mph kmh ) Pressure ( in mb ) Visibility ( mi km ) Precip ( " mm )
12:15 am 00:15 Clear 74 23.6 59 14.8 58 58 SSE 15 24 29.55 1001 10 16 N/A
12:35 am 00:35 Clear 74 23.3 58 14.7 59 59 SSE 16 26 29.55 1001 10 16 N/A
12:55 am 00:55 Clear 73 22.9 59 14.8 60 60 SSE 13 20 29.55 1001 10 16 N/A
1:15 am 01:15 Clear 73 22.5 58 14.7 61 61 SSE 14 22 29.53 1000 10 16 N/A
1:35 am 01:35 Clear 72 22.1 58 14.7 63 63 SSE 13 20 29.54 1000 10 16 N/A
1:55 am 01:55 Clear 71 21.9 58 14.6 63 63 SSE 13 20 29.53 1000 7 11 N/A
2:15 am 02:15 Clear 71 21.5 58 14.6 65 65 SSE 12 19 29.52 1000 10 16 N/A
2:35 am 02:35 Clear 70 21.2 58 14.5 66 66 SSE 12 19 29.52 1000 10 16 N/A
2:55 am 02:55 Clear 71 21.5 58 14.5 65 65 SSE 13 20 29.52 1000 10 16 N/A
3:15 am 03:15 Clear 71 21.5 58 14.5 65 65 SSE 14 22 29.51 999 10 16 N/A
3:35 am 03:35 Clear 70 20.9 58 14.5 67 67 NW 18 30 29.59 1002 10 16 N/A
3:55 am 03:55 Clear 72 22.1 57 14.1 61 61 NW 14 22 29.59 1002 10 16 N/A
4:15 am 04:15 Partly Cloudy 69 20.4 58 14.3 68 68 N N/A 29.59 1002 7 11 N/A
4:35 am 04:35 Clear 65 18.3 57 13.7 75 75 N 22 35 29.64 1004 10 16 N/A
4:55 am 04:55 Clear 62 16.4 47 8.1 58 58 N 18 30 29.68 1005 10 16 N/A
5:15 am 05:15 Clear 60 15.6 46 7.8 60 60 N 20 31 29.70 1006 7 11 N/A
5:35 am 05:35 Mostly Cloudy 61 16 45 7.1 56 56 N 23 37 29.72 1006 10 16 N/A
5:55 am 05:55 Cloudy 61 16.3 45 7.2 55 55 N 16 26 29.72 1007 10 16 N/A
6:15 am 06:15 Cloudy 62 16.7 45 7.3 54 54 N 15 24 29.73 1007 10 16 N/A
6:35 am 06:35 Cloudy 62 16.8 46 7.6 55 55 N 10 17 29.75 1007 10 16 N/A
6:55 am 06:55 Cloudy 62 16.4 46 8 58 58 N 14 22 29.75 1008 10 16 N/A
7:15 am 07:15 Cloudy 62 16.5 46 8 57 57 N 16 26 29.76 1008 10 16 N/A
7:35 am 07:35 Cloudy 61 16.3 46 8 58 58 N 10 17 29.77 1008 10 16 N/A
7:55 am 07:55 Cloudy 61 16.1 47 8.2 60 60 N 10 17 29.79 1009 10 16 N/A
8:15 am 08:15 Cloudy 61 16 47 8.3 60 60 N 10 17 29.81 1009 10 16 N/A
8:35 am 08:35 Mostly Cloudy 60 15.5 48 8.7 64 64 N 6 9 29.81 1010 10 16 N/A
8:55 am 08:55 Partly Cloudy 61 16 48 9.1 64 64 N 9 15 29.81 1009 10 16 N/A
9:15 am 09:15 Mostly Cloudy 61 16.2 48 9.1 63 63 NNW 7 11 29.82 1010 10 16 N/A
9:35 am 09:35 Cloudy 61 16.3 48 9.1 63 63 N 7 11 29.82 1010 10 16 N/A
9:55 am 09:55 Mostly Cloudy 62 16.6 48 9.1 61 61 NNW 10 17 29.83 1010 10 16 N/A
10:15 am 10:15 Mostly Cloudy 64 17.7 49 9.3 58 58 NW 18 30 29.85 1011 10 16 N/A
10:35 am 10:35 Mostly Cloudy 63 17.2 49 9.2 60 60 NW 16 26 29.86 1011 10 16 N/A
10:55 am 10:55 Mostly Cloudy 63 17.1 49 9.3 60 60 NW 18 30 29.87 1011 10 16 N/A
11:15 am 11:15 Mostly Cloudy 62 16.7 49 9.3 62 62 NW 14 22 29.89 1012 10 16 N/A
11:35 am 11:35 Cloudy 61 16.1 49 9.7 66 66 NNW 18 30 29.92 1013 10 16 N/A
11:55 am 11:55 Mostly Cloudy with Light Rain 62 16.7 51 10.5 67 67 NNW 21 33 29.91 1013 10 16 N/A
12:15 pm 12:15 Mostly Cloudy 60 15.7 51 10.7 72 72 NNW 18 30 29.93 1014 10 16 N/A
12:35 pm 12:35 Cloudy 60 15.7 51 10.5 71 71 NNW 16 26 29.94 1014 10 16 N/A
12:55 pm 12:55 Cloudy 61 16 50 10.2 69 69 NNW 20 31 29.94 1014 10 16 N/A
1:15 pm 13:15 Cloudy 63 17.4 51 10.8 65 65 NNW 18 30 29.92 1013 10 16 N/A
1:35 pm 13:35 Mostly Cloudy 66 18.9 52 10.9 60 60 NNW 15 24 29.91 1013 10 16 N/A
1:55 pm 13:55 Partly Cloudy 67 19.3 51 10.6 57 57 N 16 26 29.91 1013 10 16 N/A
2:15 pm 14:15 Mostly Cloudy 69 20.3 50 10.2 52 52 NW 17 28 29.90 1013 10 16 N/A
2:35 pm 14:35 Cloudy 69 20.4 50 10 51 51 NW 17 28 29.90 1012 10 16 N/A
2:55 pm 14:55 Mostly Cloudy 69 20.7 47 8.6 46 46 NNW 20 31 29.91 1013 10 16 N/A
3:15 pm 15:15 Partly Cloudy 70 21 47 8.4 45 45 NNW 20 31 29.89 1012 10 16 N/A
3:35 pm 15:35 Partly Cloudy 71 21.6 45 7.4 40 40 NNW 21 33 29.90 1012 10 16 N/A
3:55 pm 15:55 Partly Cloudy 71 21.5 46 7.8 41 41 NNW 13 20 29.91 1013 10 16 N/A
4:15 pm 16:15 Mostly Cloudy 70 21.3 45 7.4 41 41 N 18 30 29.91 1013 10 16 N/A
4:35 pm 16:35 Partly Cloudy 71 21.5 44 6.7 38 38 NNW 20 31 29.91 1013 10 16 N/A
4:55 pm 16:55 Sunny 71 21.7 44 6.4 37 37 N 16 26 29.92 1013 10 16 N/A
5:15 pm 17:15 Sunny 71 21.4 44 6.4 38 38 NNW 20 31 29.92 1013 10 16 N/A
5:35 pm 17:35 Partly Cloudy 71 21.4 44 6.4 38 38 N 18 30 29.92 1013 10 16 N/A
5:55 pm 17:55 Partly Cloudy 70 20.9 42 5.8 37 37 N 20 31 29.93 1014 10 16 N/A
6:15 pm 18:15 Partly Cloudy 69 20.5 42 5.6 38 38 N 12 19 29.95 1014 10 16 N/A
6:35 pm 18:35 Sunny 68 20 42 5.7 39 39 N 12 19 29.96 1015 10 16 N/A
6:55 pm 18:55 Sunny 67 19.5 42 5.7 41 41 N 12 19 29.98 1015 10 16 N/A
7:15 pm 19:15 Sunny 65 18.6 42 5.3 42 42 N 13 20 29.99 1016 10 16 N/A
7:35 pm 19:35 Sunny 63 17.2 42 5.8 47 47 N 8 13 30.02 1016 10 16 N/A
7:55 pm 19:55 Clear 59 15 44 6.5 57 57 N 6 9 30.05 1017 10 16 N/A
8:15 pm 20:15 Clear 57 13.7 44 6.7 63 63 NNW 7 11 30.08 1019 10 16 N/A
8:35 pm 20:35 Clear 55 12.5 44 6.7 68 68 N 7 11 30.10 1019 10 16 N/A
8:55 pm 20:55 Clear 55 12.5 44 6.9 69 69 N 6 9 30.11 1020 10 16 N/A
9:15 pm 21:15 Clear 52 11.1 44 6.5 74 74 N 6 9 30.13 1020 10 16 N/A
9:35 pm 21:35 Clear 51 10.7 43 6.3 74 74 NNW 7 11 30.14 1021 10 16 N/A
9:55 pm 21:55 Clear 49 9.6 43 6.2 80 80 NNW 5 7 30.16 1021 10 16 N/A
10:15 pm 22:15 Clear 48 8.8 43 6.2 84 84 NW 7 11 30.18 1022 10 16 N/A
10:35 pm 22:35 Clear 46 7.9 43 6 88 88 NW 6 9 30.20 1023 10 16 N/A
10:55 pm 22:55 Clear 47 8.1 43 6 87 87 WNW 5 7 30.21 1023 10 16 N/A
11:15 pm 23:15 Clear 47 8.1 43 6.1 87 87 W 3 6 30.23 1024 10 16 N/A
11:35 pm 23:35 Clear 47 8.4 44 6.4 87 87 WNW 3 6 30.23 1024 10 16 N/A
11:55 pm 23:55 Clear 45 7.1 42 5.5 90 90 NW 5 7 30.23 1024 10 16 N/A

Powered by AerisWeather